Regional Weather Roundup
Issued by NWS Upton, NY

Current Version | Previous Version | Graphics & Text | Print | Product List | Glossary On
Versions: 1 2 3 4 5 6 7 8 9 10 11 12 13 14 15 16 17 18 19 20 21 22 23 24 25 26 27
000
ASUS41 KOKX 270609
RWROKX

REGIONAL WEATHER ROUNDUP
NATIONAL WEATHER SERVICE NEW YORK NY
200 AM EDT THU APR 27 2017

NOTE: "FAIR" INDICATES FEW OR NO CLOUDS BELOW 12,000 FEET WITH NO
SIGNIFICANT WEATHER AND/OR OBSTRUCTIONS TO VISIBILITY.

NYZ071-072-176-178-NJZ106-104-270700-
NEW YORK CITY METRO AREA

CITY           SKY/WX    TMP DP  RH WIND       PRES   REMARKS
Central Park   CLOUDY    58  58 100 CALM      29.87S FOG
Wall St Helipt FOG       58  57  97 W5        29.86S VSB 1
Bronx Bot Gard   N/A     57  55  94 CALM      29.85F
LaGuardia APRT DRZL/FOG  58  57  97 CALM      29.84F VSB 1/2
Kennedy INTL   DRIZZLE   58  58 100 W5        29.86S FOG
Breezy Point     N/A     54 N/A N/A W2          N/A
Newark/Liberty DRIZZLE   59  59 100 SW3       29.85S FOG
Teterboro      DRZL/FOG  59  59 100 CALM      29.84S VSB 1/2
$$

NYZ177-179-078>081-270700-
LONG ISLAND NEW YORK

CITY           SKY/WX    TMP DP  RH WIND       PRES   REMARKS
Jones Beach      N/A     54 N/A N/A NW2         N/A
Matinecock PT  NOT AVBL
Farmingdale    CLOUDY    57  56  96 W3        29.85R FOG
MacArthur/ISP  CLOUDY    55  55 100 W7        29.84S
Shirley        FOG       54  54 100 CALM      29.84F VSB 1/4
Mt Sinai Harb    N/A    N/A N/A N/A MISG        N/A
Westhampton    CLOUDY    54  53  97 SW3       29.85S FOG
East Hampton   FOG       54  54  99 CALM      29.83S VSB 3/4
Montauk        NOT AVBL
$$

NYZ052-065-067-270700-
HUDSON VALLEY

CITY           SKY/WX    TMP DP  RH WIND       PRES   REMARKS
White Plains   MOCLDY    57  55  93 CALM      29.84S FOG
Larchmont Harb   N/A     55 N/A N/A MISG        N/A
Croton O-T Hud   N/A     57 N/A N/A MISG        N/A
Newburgh       CLOUDY    57  57 100 CALM      29.86S FOG
Montgomery     CLOUDY    58  56  93 CALM      29.84S FOG
Poughkeepsie   CLOUDY    58  56  93 CALM      29.83F FOG
Albany         MOCLDY    57  52  83 S3        29.83F
$$

NJZ001-105-106-008-010-013-015-019>022-104-270700-
NEW JERSEY

CITY           SKY/WX    TMP DP  RH WIND       PRES   REMARKS
Newark/Liberty DRIZZLE   59  59 100 SW3       29.85S FOG
Teterboro      DRZL/FOG  59  59 100 CALM      29.84S VSB 1/2
Caldwell       CLOUDY    58  58 100 CALM      29.86S FOG
Somerville     CLOUDY    60  58  92 CALM      29.83F
Linden         CLOUDY    59  58  95 CALM      29.85F FOG
Sussex         CLOUDY    57  56  96 CALM      29.86S FOG
Andover          N/A     58  56  93 CALM      29.85F
Trenton        CLOUDY    60  58  92 CALM      29.84F
Millville      CLOUDY    59  59 100 CALM      29.85S FOG
Atlantic City  CLOUDY    56  54  93 SW3       29.85F
Wrightstown    CLOUDY    59  57  95 S3        29.83F
Toms River     CLOUDY    57  56  96 CALM      29.86F
Belmar         CLOUDY    58  57  97 CALM      29.86S FOG
$$

PAZ047>061-062-071-270700-
EASTERN PENNSYLVANIA

CITY           SKY/WX    TMP DP  RH WIND       PRES   REMARKS
Philadelphia   CLOUDY    62  56  80 CALM      29.85F
Allentown      CLOUDY    62  55  77 S3        29.85S
Scranton       MOCLDY    58  55  90 CALM      29.83S
$$

CTZ002-004>006-009-010-012-RIZ004-006-007-MAZ004-011-015-270700-
SOUTHERN NEW ENGLAND
 IN CT

CITY           SKY/WX    TMP DP  RH WIND       PRES   REMARKS
Bradley INTL   CLOUDY    57  56  96 N6        29.85R
Hartford       CLOUDY    58  57  97 N3        29.84S
Danbury        CLOUDY    56  56 100 CALM      29.86S
Wtrbury/Oxford CLOUDY    55  54  94 CALM      29.85S VSB 1
Bridgeport     CLOUDY    56  54  93 W3        29.84R
Meriden        CLOUDY    59  57  93 CALM      29.84S FOG
New Haven      CLOUDY    55  54  96 CALM      29.83S FOG
Chester        FOG       57  57 100 CALM      29.84S VSB<1/4
Groton         FOG       53  53 100 CALM      29.83R VSB 1/2
Wilimantic     CLOUDY    59  57  93 N3        29.84F

 IN RI

CITY           SKY/WX    TMP DP  RH WIND       PRES   REMARKS
Providence     CLOUDY    55  55 100 NE3       29.84F FOG
Block Island   CLOUDY    52  52 100 NE3       29.83F FOG
Westerly       FOG       54  54 100 CALM      29.83F VSB 1/2
 IN MA

CITY           SKY/WX    TMP DP  RH WIND       PRES   REMARKS
Boston         FOG       51  51 100 E5        29.87R VSB 1/2
Worcester      FOG       53  51  93 N5        29.85S VSB 1/2
Westfield      CLOUDY    56  56 100 NE3       29.84S
Provincetown   FOG       51  51 100 CALM      29.87R VSB 1
Nantucket      FOG       52  51  97 N6        29.85S VSB 1/2
$$

ANZ330-335-338-340-345-350-353-355-270700-
COASTAL MARINE OBSERVATIONS


STATION/POSITION TIME  SKY/WX   TEMP    WIND        PRES    VSBY  WAVE
                                AIR SEA DIR/SP/G                  HT/PER
                 (UTC)          (F)     (DEG/KT/KT) (MB)    (MI)  (FT/S)
NY HARB ENTRANCE 0450            51 48  260/  4/  4 1010.9          6/11
20 S FIRE ISLAND 0550            49 49  280/  6/  8 1010.6          7/10
GREAT SOUTH BAY  0530            54 57  110/  2/  2   N/A
23 SSW MONTAUK P 0450            47 45              1010.7          8/11
15 E BARNEGAT LI 0530               51                N/A           6/11
HUDSON CANYON    0450            51 51  240/  4/  6 1011.0          8/11
KINGS POINT      0542            54 49     CALM     1010.5
EXECUTION ROCKS  NOT AVBL
CENTRAL LI SOUND NOT AVBL
EASTERN LI SOUND NOT AVBL
ROBBINS REEF     0542            58     270/  4/  5 1011.0
$$


>>>>>>>>>>>>>>>>>>>>>>>>>>>> KEY <<<<<<<<<<<<<<<<<<<<<<<<<<<
>                                                          <
>     SKY/WX - Sky Condition/Present Weather               <
>     TMP    - Temperature in Fahrenheit                   <
>     DP     - Dew Point in Fahrenheit                     <
>     RH     - Relative Humidity in Percent                <
>     WIND   - Direction (from) and Speed in MPH           <
>     PRES   - Mean Sea Level Pressure (inches of Hg)      <
>     WCI    - Wind Chill Index                            <
>     VSB    - VISIBILITY IN MILES                         <
>     HX     - HEAT INDEX                                  <
>     TC     - TEMPERATURE IN CELSIUS                      <
>     VRB    - VARIABLE WIND DIRECTION                     <
>                                                          <
>>>>>>>>>>>>>>>>>>>>>>>>>>>> KEY <<<<<<<<<<<<<<<<<<<<<<<<<<<




USA.gov is the U.S. government's official web portal to all federal, state and local government web resources and services.